Olympics
Hurricane Ridge
Latest observation 08/31 19:00 PDT
| Time (PDT) | Temp °F 5250' | RH % 5250' | Min mph 5250' | Spd mph 5250' | Gust mph 5250' | Dir ° 5250' | Pcp1 in 5250' | PcpSum in 5250' | SnoHt in 5250' | SR W/m² 5250' |
|---|---|---|---|---|---|---|---|---|---|---|
| 08/31 19:00 | 57 | 69 | 0 | 0 | 0 | 326 | 0.00 | 0.07 | 1.0 | 49 |
| 08/31 18:00 | 57 | 66 | 0 | 0 | 0 | 75 | 0.00 | 0.07 | 1.1 | 136 |
| 08/31 17:00 | 56 | 69 | 0 | 0 | 0 | 217 | 0.00 | 0.07 | 0.8 | 219 |
| 08/31 16:00 | 63 | 52 | 0 | 0 | 3 | 242 | 0.00 | 0.07 | 1.1 | 208 |
| 08/31 15:00 | 64 | 50 | 0 | 1 | 6 | 248 | 0.00 | 0.07 | 0.7 | 444 |
| 08/31 14:00 | 63 | 50 | 0 | 3 | 7 | 252 | 0.00 | 0.07 | 0.8 | 706 |
| 08/31 13:00 | 63 | 52 | 0 | 2 | 6 | 250 | 0.00 | 0.07 | 0.7 | 851 |
| 08/31 12:00 | 61 | 56 | 0 | 1 | 4 | 249 | 0.00 | 0.07 | 0.9 | 775 |
| 08/31 11:00 | 56 | 64 | 0 | 1 | 6 | 235 | 0.00 | 0.07 | 1.5 | 634 |
| 08/31 10:00 | 54 | 66 | 0 | 1 | 3 | 238 | 0.00 | 0.07 | 1.4 | 372 |
| 08/31 09:00 | 54 | 65 | 0 | 1 | 4 | 231 | 0.00 | 0.07 | 1.6 | 289 |
| 08/31 08:00 | 47 | 82 | 0 | 3 | 6 | 219 | 0.00 | 0.07 | 1.8 | 52 |
| 08/31 07:00 | 45 | 88 | 1 | 4 | 7 | 206 | 0.00 | 0.07 | 1.6 | 6 |
| 08/31 06:00 | 45 | 85 | 0 | 2 | 6 | 193 | 0.00 | 0.07 | 2.1 | 0 |
| 08/31 05:00 | 45 | 88 | 0 | 1 | 4 | 187 | 0.00 | 0.07 | 2.1 | 0 |
| 08/31 04:00 | 44 | 92 | 0 | 0 | 0 | 162 | 0.00 | 0.07 | 1.8 | 0 |
| 08/31 03:00 | 44 | 94 | 0 | 0 | 0 | 202 | 0.00 | 0.07 | 1.9 | 0 |
| 08/31 02:00 | 44 | 98 | 0 | 0 | 0 | 226 | 0.00 | 0.07 | 2.1 | 0 |
| 08/31 01:00 | 45 | 99 | 0 | 0 | 0 | 235 | 0.00 | 0.07 | 1.8 | 0 |
| 08/31 00:00 | 45 | 99 | 0 | 1 | 4 | 222 | 0.00 | 0.07 | 1.4 | 0 |
| 08/30 23:00 | 44 | 99 | 0 | 1 | 5 | 208 | 0.00 | 0.07 | 1.6 | 0 |
| 08/30 22:00 | 44 | 98 | 0 | 0 | 4 | 135 | 0.00 | 0.07 | 1.9 | 0 |
| 08/30 21:00 | 45 | 99 | 0 | 0 | 1 | 94 | 0.00 | 0.07 | 2.5 | 0 |
| 08/30 20:00 | 45 | 98 | 0 | 0 | 0 | 76 | 0.00 | 0.07 | 1.8 | 15 |
| 08/30 19:00 | 46 | 96 | 0 | 0 | 0 | 80 | 0.00 | 0.07 | 1.9 | 50 |
| 08/30 18:00 | 47 | 95 | 0 | 0 | 0 | 72 | 0.00 | 0.07 | 1.1 | 80 |
| 08/30 17:00 | 47 | 92 | 0 | 0 | 0 | 54 | 0.00 | 0.07 | 1.5 | 90 |
| 08/30 16:00 | 49 | 85 | 0 | 0 | 1 | 65 | 0.00 | 0.07 | 1.3 | 170 |
| 08/30 15:00 | 49 | 87 | 0 | 0 | 0 | 67 | 0.00 | 0.07 | 1.0 | 220 |
| 08/30 14:00 | 51 | 73 | 0 | 0 | 2 | 106 | 0.00 | 0.07 | 1.1 | 294 |
| 08/30 13:00 | 51 | 69 | 0 | 0 | 2 | 49 | 0.00 | 0.07 | 1.3 | 321 |
| 08/30 12:00 | 50 | 71 | 0 | 0 | 3 | 59 | 0.00 | 0.07 | 1.3 | 334 |
| 08/30 11:00 | 46 | 79 | 0 | 0 | 1 | 329 | 0.00 | 0.07 | 1.3 | 246 |
| 08/30 10:00 | 46 | 81 | 0 | 0 | 0 | 3 | 0.00 | 0.07 | 1.8 | 304 |
| 08/30 09:00 | 42 | 89 | 0 | 0 | 1 | 342 | 0.00 | 0.07 | 1.8 | 166 |
| 08/30 08:00 | 40 | 96 | 0 | 2 | 5 | 41 | 0.00 | 0.07 | 2.0 | 52 |
| 08/30 07:00 | 39 | 97 | 0 | 3 | 7 | 45 | 0.00 | 0.07 | 2.1 | 7 |
| 08/30 06:00 | 38 | 97 | 0 | 1 | 4 | 32 | 0.00 | 0.07 | 2.1 | 0 |
| 08/30 05:00 | 37 | 97 | 0 | 1 | 6 | 57 | 0.00 | 0.07 | 2.3 | 0 |
| 08/30 04:00 | 38 | 98 | 0 | 2 | 6 | 278 | 0.00 | 0.07 | 2.1 | 0 |
| 08/30 03:00 | 38 | 98 | 2 | 3 | 6 | 251 | 0.00 | 0.07 | 2.7 | 0 |
| 08/30 02:00 | 38 | 98 | 3 | 4 | 6 | 249 | 0.00 | 0.07 | 1.9 | 0 |
| 08/30 01:00 | 38 | 96 | 3 | 5 | 8 | 246 | 0.00 | 0.07 | 2.4 | 0 |
| 08/30 00:00 | 39 | 96 | 3 | 5 | 6 | 246 | 0.00 | 0.07 | 1.9 | 0 |
| 08/29 23:00 | 39 | 94 | 1 | 4 | 5 | 255 | 0.00 | 0.07 | 1.8 | 0 |
| 08/29 22:00 | 39 | 88 | 1 | 4 | 7 | 271 | 0.00 | 0.07 | 1.6 | 0 |
| 08/29 21:00 | 40 | 82 | 0 | 2 | 7 | 311 | 0.00 | 0.07 | 1.5 | 1 |
| 08/29 20:00 | 42 | 75 | 0 | 2 | 8 | 38 | 0.00 | 0.07 | 1.4 | 12 |
| 08/29 19:00 | 45 | 71 | 0 | 4 | 12 | 44 | 0.00 | 0.07 | 1.4 | 21 |
| 08/29 18:00 | 47 | 69 | 0 | 2 | 8 | 21 | 0.00 | 0.07 | 1.3 | 159 |
| 08/29 17:00 | 51 | 62 | 0 | 4 | 10 | 6 | 0.00 | 0.07 | 1.1 | 306 |
| 08/29 16:00 | 49 | 61 | 0 | 3 | 11 | 14 | 0.00 | 0.07 | 0.9 | 167 |
| 08/29 15:00 | 51 | 56 | 0 | 3 | 12 | 347 | 0.00 | 0.07 | 1.1 | 430 |
| 08/29 14:00 | 51 | 64 | 0 | 3 | 11 | 11 | 0.00 | 0.07 | 0.9 | 759 |
| 08/29 13:00 | 50 | 71 | 0 | 2 | 9 | 355 | 0.00 | 0.07 | 1.3 | 590 |
| 08/29 12:00 | 46 | 76 | 0 | 2 | 6 | 314 | 0.00 | 0.07 | 2.1 | 499 |
| 08/29 11:00 | 43 | 82 | 0 | 1 | 4 | 320 | 0.00 | 0.07 | 1.8 | 565 |
| 08/29 10:00 | 42 | 88 | 0 | 1 | 5 | 341 | 0.00 | 0.07 | 2.0 | 350 |
| 08/29 09:00 | 42 | 83 | 0 | 0 | 3 | 343 | 0.00 | 0.07 | 2.0 | 272 |
| 08/29 08:00 | 37 | 97 | 0 | 1 | 7 | 17 | 0.00 | 0.07 | 2.1 | 50 |
| 08/29 07:00 | 37 | 98 | 0 | 3 | 10 | 55 | 0.00 | 0.07 | 2.1 | 5 |
| 08/29 06:00 | 37 | 98 | 1 | 4 | 8 | 52 | 0.00 | 0.07 | 1.9 | 0 |
| 08/29 05:00 | 37 | 97 | 0 | 4 | 11 | 56 | 0.02 | 0.07 | 1.7 | 0 |
| 08/29 04:00 | 39 | 96 | 0 | 3 | 12 | 40 | 0.04 | 0.05 | 2.1 | 0 |
| 08/29 03:00 | 40 | 95 | 0 | 0 | 4 | 351 | 0.00 | 0.01 | 1.7 | 0 |
| 08/29 02:00 | 41 | 95 | 0 | 0 | 3 | 17 | 0.01 | 0.01 | 1.9 | 0 |
| 08/29 01:00 | 41 | 94 | 0 | 1 | 6 | 13 | 0.00 | 0.00 | 1.6 | 0 |
| 08/29 00:00 | 41 | 94 | 0 | 4 | 10 | 304 | 0.00 | 0.00 | 1.3 | 0 |
| 08/28 23:00 | 42 | 93 | 0 | 5 | 10 | 282 | 0.00 | 0.00 | 1.3 | 0 |
| 08/28 22:00 | 43 | 93 | 0 | 3 | 9 | 286 | 0.00 | 0.00 | 1.1 | 0 |
| 08/28 21:00 | 43 | 93 | 0 | 2 | 7 | 316 | 0.00 | 0.00 | 1.4 | 0 |
| 08/28 20:00 | 44 | 91 | 0 | 2 | 8 | 17 | 0.00 | 0.00 | 1.2 | 8 |
| 08/28 19:00 | 46 | 87 | 0 | 0 | 3 | 10 | 0.00 | 0.00 | 1.3 | 39 |
| 08/28 18:00 | 49 | 82 | 0 | 0 | 3 | 345 | 0.00 | 0.00 | 1.1 | 241 |
| 08/28 17:00 | 47 | 95 | 0 | 0 | 4 | 360 | 0.00 | 0.00 | 2.0 | 303 |
| 08/28 16:00 | 49 | 91 | 0 | 0 | 3 | 5 | 0.00 | 0.00 | 1.3 | 254 |
| 08/28 15:00 | 47 | 94 | 0 | 0 | 3 | 73 | 0.00 | 0.00 | 1.6 | 254 |
| 08/28 14:00 | 51 | 82 | 0 | 0 | 6 | 108 | 0.00 | 0.00 | 1.0 | 858 |
| 08/28 13:00 | 54 | 70 | 0 | 1 | 5 | 308 | 0.00 | 0.00 | 0.9 | 857 |
| 08/28 12:00 | 52 | 74 | 0 | 2 | 8 | 272 | 0.00 | 0.00 | 0.8 | 426 |
| 08/28 11:00 | 50 | 80 | 0 | 2 | 6 | 244 | 0.00 | 0.00 | 1.1 | 428 |
| 08/28 10:00 | 48 | 81 | 0 | 2 | 5 | 248 | 0.00 | 0.00 | 1.6 | 429 |
| 08/28 09:00 | 47 | 84 | 0 | 2 | 7 | 228 | 0.00 | 0.00 | 1.8 | 296 |
| 08/28 08:00 | 43 | 98 | 0 | 4 | 7 | 229 | 0.00 | 0.00 | 1.9 | 44 |
| 08/28 07:00 | 42 | 98 | 1 | 4 | 7 | 238 | 0.00 | 0.00 | 1.7 | 6 |
| 08/28 06:00 | 43 | 96 | 0 | 0 | 3 | 245 | 0.00 | 0.00 | 1.7 | 0 |
| 08/28 05:00 | 43 | 93 | 0 | 0 | 0 | 223 | 0.00 | 0.00 | 1.7 | 0 |
| 08/28 04:00 | 44 | 81 | 0 | 0 | 0 | 168 | 0.00 | 0.00 | 1.7 | 0 |
| 08/28 03:00 | 44 | 83 | 0 | 0 | 0 | 194 | 0.00 | 0.00 | 1.9 | 0 |
| 08/28 02:00 | 44 | 88 | 0 | 0 | 0 | 207 | 0.00 | 0.00 | 1.6 | 0 |
| 08/28 01:00 | 44 | 98 | 0 | 1 | 4 | 219 | 0.00 | 0.00 | 1.7 | 0 |
| 08/28 00:00 | 44 | 98 | 1 | 4 | 6 | 235 | 0.00 | 0.00 | 1.3 | 0 |
| 08/27 23:00 | 44 | 98 | 4 | 5 | 7 | 235 | 0.00 | 0.00 | 1.5 | 0 |
| 08/27 22:00 | 45 | 96 | 0 | 3 | 5 | 243 | 0.00 | 0.00 | 1.4 | 0 |
| 08/27 21:00 | 46 | 94 | 0 | 2 | 5 | 257 | 0.00 | 0.00 | 1.2 | 1 |
| 08/27 20:00 | 47 | 92 | 0 | 2 | 8 | 259 | 0.00 | 0.00 | 1.0 | 22 |
| 08/27 19:00 | 49 | 87 | 0 | 1 | 9 | 271 | 0.00 | 0.00 | 1.4 | 88 |
| 08/27 18:00 | 48 | 88 | 0 | 1 | 4 | 286 | 0.00 | 0.00 | 1.2 | 62 |
| 08/27 17:00 | 51 | 81 | 0 | 2 | 11 | 275 | 0.00 | 0.00 | 1.2 | 135 |
| 08/27 16:00 | 51 | 84 | 0 | 3 | 9 | 267 | 0.00 | 0.00 | 1.1 | 166 |
| 08/27 15:00 | 50 | 82 | 1 | 5 | 12 | 258 | 0.00 | 0.00 | 1.1 | 156 |
| 08/27 14:00 | 52 | 77 | 1 | 5 | 12 | 263 | 0.00 | 0.00 | 1.2 | 248 |
| 08/27 13:00 | 48 | 87 | 2 | 7 | 16 | 240 | 0.00 | 0.00 | 1.4 | 146 |
| 08/27 12:00 | 50 | 87 | 3 | 6 | 14 | 243 | 0.00 | 0.00 | 1.4 | 217 |
| 08/27 11:00 | 48 | 90 | 3 | 7 | 12 | 247 | 0.00 | 0.00 | 1.1 | 148 |
| 08/27 10:00 | 46 | 90 | 2 | 6 | 13 | 250 | 0.00 | 0.00 | 1.1 | 94 |
| 08/27 09:00 | 46 | 84 | 4 | 8 | 15 | 247 | 0.00 | 0.00 | 1.4 | 52 |
| 08/27 08:00 | 45 | 78 | 4 | 7 | 13 | 247 | 0.00 | 0.00 | 1.3 | 23 |
| 08/27 07:00 | 44 | 85 | 4 | 9 | 16 | 243 | 0.00 | 0.00 | 1.5 | 7 |
| 08/27 06:00 | 44 | 87 | 4 | 9 | 13 | 246 | 0.00 | 0.00 | 1.5 | 0 |
| 08/27 05:00 | 44 | 88 | 2 | 6 | 13 | 253 | 0.00 | 0.00 | 1.6 | 0 |
| 08/27 04:00 | 44 | 85 | 4 | 8 | 17 | 254 | 0.00 | 0.00 | 1.7 | 0 |
| 08/27 03:00 | 45 | 82 | 6 | 8 | 17 | 255 | 0.00 | 0.00 | 1.5 | 0 |
| 08/27 02:00 | 45 | 86 | 3 | 7 | 12 | 254 | 0.00 | 0.00 | 1.7 | 0 |
| 08/27 01:00 | 46 | 85 | 4 | 6 | 11 | 252 | 0.00 | 0.00 | 1.3 | 0 |
| 08/27 00:00 | 47 | 82 | 4 | 9 | 13 | 253 | 0.00 | 0.00 | 1.4 | 0 |
| 08/26 23:00 | 47 | 78 | 4 | 8 | 14 | 256 | 0.00 | 0.00 | 1.4 | 0 |
| 08/26 22:00 | 47 | 74 | 4 | 7 | 15 | 260 | 0.00 | 0.00 | 1.1 | 0 |
| 08/26 21:00 | 48 | 69 | 2 | 5 | 11 | 249 | 0.00 | 0.00 | 1.1 | 1 |
| 08/26 20:00 | 52 | 59 | 2 | 6 | 12 | 244 | 0.00 | 0.00 | 1.1 | 15 |
| 08/26 19:00 | 56 | 53 | 3 | 6 | 12 | 247 | 0.00 | 0.00 | 1.0 | 29 |
| 08/26 18:00 | 59 | 51 | 3 | 7 | 16 | 249 | 0.00 | 0.00 | 0.8 | 147 |
| 08/26 17:00 | 63 | 44 | 4 | 8 | 14 | 246 | 0.00 | 0.00 | 1.1 | 268 |
| 08/26 16:00 | 64 | 44 | 3 | 8 | 13 | 247 | 0.00 | 0.00 | 1.2 | 31 |
| 08/26 15:00 | 65 | 40 | 3 | 7 | 13 | 244 | 0.00 | 0.00 | 0.6 | 391 |
| 08/26 14:00 | 66 | 36 | 0 | 6 | 11 | 241 | 0.00 | 0.00 | 0.9 | 803 |
| 08/26 13:00 | 66 | 30 | 2 | 7 | 13 | 240 | 0.00 | 0.00 | 0.7 | 845 |
| 08/26 12:00 | 65 | 28 | 4 | 7 | 12 | 248 | 0.00 | 0.00 | 0.9 | 787 |
| 08/26 11:00 | 63 | 29 | 3 | 8 | 14 | 247 | 0.00 | 0.00 | 0.8 | 668 |
| 08/26 10:00 | 61 | 30 | 4 | 8 | 13 | 246 | 0.00 | 0.00 | 0.8 | 498 |
| 08/26 09:00 | 59 | 32 | 3 | 7 | 11 | 247 | 0.00 | 0.00 | 1.1 | 304 |
| 08/26 08:00 | 54 | 43 | 4 | 6 | 12 | 235 | 0.00 | 0.00 | 1.6 | 40 |
| 08/26 07:00 | 51 | 54 | 2 | 4 | 7 | 237 | 0.00 | 0.00 | 1.3 | 6 |
| 08/26 06:00 | 51 | 62 | 0 | 2 | 6 | 235 | 0.00 | 0.00 | 1.1 | 0 |
| 08/26 05:00 | 53 | 60 | 2 | 5 | 12 | 252 | 0.00 | 0.00 | 1.1 | 0 |
| 08/26 04:00 | 53 | 63 | 2 | 5 | 9 | 258 | 0.00 | 0.00 | 1.1 | 0 |
| 08/26 03:00 | 54 | 59 | 2 | 6 | 18 | 256 | 0.00 | 0.00 | 1.0 | 0 |
| 08/26 02:00 | 54 | 52 | 3 | 7 | 17 | 261 | 0.00 | 0.00 | 1.2 | 0 |
| 08/26 01:00 | 55 | 48 | 3 | 7 | 13 | 258 | 0.00 | 0.00 | 0.9 | 0 |
| 08/26 00:00 | 55 | 47 | 4 | 8 | 20 | 256 | 0.00 | 0.00 | 0.8 | 0 |
| 08/25 23:00 | 55 | 45 | 3 | 6 | 12 | 250 | 0.00 | 0.00 | 1.0 | 0 |
| 08/25 22:00 | 54 | 52 | 2 | 6 | 16 | 225 | 0.00 | 0.00 | 0.8 | 0 |
| 08/25 21:00 | 56 | 50 | 2 | 5 | 10 | 246 | 0.00 | 0.00 | 1.0 | 1 |
| 08/25 20:00 | 59 | 46 | 3 | 6 | 10 | 254 | 0.00 | 0.00 | 0.9 | 11 |
| 08/25 19:00 | 65 | 34 | 3 | 7 | 15 | 252 | 0.00 | 0.00 | 1.1 | 21 |
| 08/25 18:00 | 69 | 26 | 4 | 8 | 17 | 254 | 0.00 | 0.00 | 0.7 | 172 |
| 08/25 17:00 | 72 | 27 | 4 | 8 | 18 | 252 | 0.00 | 0.00 | 1.1 | 303 |
| 08/25 16:00 | 73 | 31 | 4 | 8 | 12 | 250 | 0.00 | 0.00 | 0.8 | 89 |
| 08/25 15:00 | 76 | 31 | 4 | 9 | 14 | 244 | 0.00 | 0.00 | 0.6 | 514 |
| 08/25 14:00 | 76 | 27 | 3 | 8 | 14 | 245 | 0.00 | 0.00 | 0.4 | 812 |
| 08/25 13:00 | 75 | 28 | 3 | 8 | 18 | 241 | 0.00 | 0.00 | 0.5 | 822 |
| 08/25 12:00 | 73 | 32 | 1 | 8 | 13 | 245 | 0.00 | 0.00 | 0.6 | 749 |
| 08/25 11:00 | 70 | 38 | 2 | 7 | 10 | 241 | 0.00 | 0.00 | 0.8 | 610 |
| 08/25 10:00 | 68 | 40 | 0 | 5 | 9 | 245 | 0.00 | 0.00 | 1.0 | 441 |
| 08/25 09:00 | 67 | 41 | 0 | 2 | 6 | 245 | 0.00 | 0.00 | 1.1 | 297 |
| 08/25 08:00 | 62 | 48 | 1 | 4 | 7 | 246 | 0.00 | 0.00 | 1.0 | 38 |
| 08/25 07:00 | 59 | 49 | 1 | 3 | 5 | 253 | 0.00 | 0.00 | 1.1 | 7 |
| 08/25 06:00 | 60 | 47 | 3 | 5 | 11 | 248 | 0.00 | 0.00 | 1.5 | 0 |
| 08/25 05:00 | 60 | 47 | 3 | 5 | 7 | 249 | 0.00 | 0.00 | 1.3 | 0 |
| 08/25 04:00 | 59 | 49 | 2 | 4 | 6 | 244 | 0.00 | 0.00 | 1.2 | 0 |
| 08/25 03:00 | 60 | 46 | 0 | 2 | 5 | 240 | 0.00 | 0.00 | 1.1 | 0 |
| 08/25 02:00 | 60 | 46 | 0 | 0 | 3 | 236 | 0.00 | 0.00 | 1.0 | 0 |
| 08/25 01:00 | 61 | 44 | 0 | 2 | 6 | 223 | 0.00 | 0.00 | 1.2 | 0 |
| 08/25 00:00 | 62 | 44 | 0 | 2 | 6 | 226 | 0.00 | 0.00 | 1.0 | 0 |
| 08/24 23:00 | 59 | 52 | 1 | 2 | 4 | 238 | 0.00 | 0.00 | 0.9 | 0 |
| 08/24 22:00 | 60 | 51 | 0 | 2 | 7 | 253 | 0.00 | 0.00 | 0.9 | 0 |
| 08/24 21:00 | 60 | 46 | 0 | 1 | 8 | 252 | 0.00 | 0.00 | 0.9 | 2 |
| 08/24 20:00 | 64 | 44 | 0 | 0 | 0 | 209 | 0.00 | 0.00 | 1.0 | 15 |

